Lyons, CO

6:24 PM MST on December 28, 2014 (GMT -0700)
Kelling | Change Station
CLOSE
Current Station
Personal Weather Station
Location: Lyons, CO
Elevation: 5436 ft
Nearby Weather Stations
Active Advisory: Winter Weather Advisory

Elev 5436 ft 40.22 °N, 105.26 °W | Updated 5 seconds ago

Partly Cloudy
Partly Cloudy
19.0 °F
Feels Like 19 °F
N
1.6
Wind Variable Wind from South
Gusts 3.1 mph

Today
High -- | Low -- °F
--% Chance of Precip.
Yesterday
High -- | Low -- °F
Precip. -- in
7:22 AM 4:42 PM
First Quarter, 53% visible
Pressure 29.94 in
Visibility 10.0 miles
Clouds Clear
Windchill 19 °F
Dew Point 6 °F
Humidity 57%
Rainfall 0.00 in
Snow Depth Not available.
UV 0 out of 12
Pollen .10 out of 12
Air Quality Not available.
Flu Activity Not available.
METAR KLMO 290115Z AUTO 00000KT 10SM CLR M10/M12 A2994 RMK AO2 T10961125

More Conditions Fewer Conditions

Pressure 29.94 in
Visibility 10.0 miles
Clouds Clear
Windchill 19 °F
Dew Point 6 °F
Humidity 57%
Rainfall 0.00 in
Snow Depth Not available.
UV 0 out of 12
Pollen .10 out of 12
Air Quality Not available.
Flu Activity Not available.
METAR KLMO 290115Z AUTO 00000KT 10SM CLR M10/M12 A2994 RMK AO2 T10961125

More Conditions Fewer Conditions

10-Day Weather Forecast

Almanac

Astronomy

Dec. 28, 2014 Rise Set
Actual Time
Civil Twilight
Nautical Twilight
Astronomical Twilight
Moon
Length of Visible Light
Length of Day
Tomorrow will be .
, % of the Moon is Illuminated

Today's Extremes

State Highs State Lows

Community

WunderPhotos

Upload Photos

1,781,484 photos uploaded!

WunderBlogs® & News

Nearby

Air Quality

  Air Quality AQ Index Pollutant
Not available.

Snow Depth

Station Depth Elevation

Earthquake Activity

City Distance Mag. Time & Date
Minimum magnitude displayed is 2.5.

Coastal Water Temperatures

Place Temperature

Nearby Weather Stations